Temp
12 12 12 12 12 12 12 12 11 10 10 9 9 9 9 9 8 8 8 8 9 9 9 9 8 7 7 8 8 8 8 8 8 8 8 8 8 8 8 8 8 8 8
12 12 11 12 12 12 12 11 11 11 10 10 9 8 8 8 8 8 8 9 9 9 9 8 8 8 8 7 7 7 7 8 8 8 8 8 8 8 8 8 8 8 8
11 12 12 12 12 12 12 11 11 11 10 10 10 8 8 8 8 8 8 9 9 9 8 8 8 8 7 7 7 7 7 7 7 7 8 8 8 8 8 8 8 7 7
12 12 12 12 12 11 11 11 11 11 10 10 10 8 8 7 8 8 8 8 8 8 8 8 8 7 7 7 7 7 6 7 7 7 8 7 7 7 7 8 7 7 7
11 11 11 12 12 11 11 11 11 10 10 10 10 9 8 7 7 7 8 8 8 8 8 8 7 7 7 6 6 6 6 7 7 7 7 7 7 7 7 7 7 7 7
10 11 11 12 11 11 11 11 11 10 10 10 9 9 8 7 7 7 8 8 8 7 7 7 7 7 6 6 6 6 6 6 6 7 7 7 7 7 7 7 7 7 7
9 10 11 11 11 10 10 10 10 10 10 10 9 8 8 7 7 7 8 8 7 7 7 7 6 6 6 6 6 6 6 6 6 7 7 7 7 7 7 7 7 7 7
9 9 10 10 10 9 10 10 10 10 10 9 8 8 7 7 7 7 7 7 7 7 6 6 6 6 6 6 6 6 6 6 6 6 6 7 7 7 6 6 6 7 7
7 8 9 9 9 8 8 9 9 9 9 8 8 7 7 7 7 8 7 7 7 6 6 5 5 5 5 5 5 5 6 6 6 6 6 6 6 6 6 6 6 6 6
7 7 8 8 8 8 8 8 9 8 8 8 7 7 7 7 7 7 7 7 6 6 5 5 5 5 5 5 5 5 5 5 6 6 6 6 6 6 6 6 6 6 6
6 7 8 8 7 6 7 7 8 8 7 7 7 7 7 7 7 7 7 6 6 6 5 5 5 5 5 5 5 5 5 5 6 6 6 6 6 6 6 6 6 6 6
6 6 6 6 6 5 6 7 8 7 7 7 7 7 6 7 7 7 6 6 6 5 5 5 5 5 5 5 5 5 5 5 6 6 6 6 6 6 6 6 6 6 6
5 6 5 5 4 5 5 6 7 7 6 6 7 7 6 6 7 7 6 6 5 5 5 5 5 5 5 5 5 5 5 5 5 6 5 6 6 6 6 6 6 6 6
5 5 5 5 6 5 6 5 6 7 6 6 6 6 6 6 7 6 6 6 5 5 5 5 5 5 5 5 5 5 5 5 5 6 5 5 6 6 5 5 6 6 6
4 4 4 5 5 4 5 6 6 6 6 6 6 5 6 7 6 6 6 6 5 5 5 5 5 5 5 5 5 5 5 5 5 5 5 5 5 6 6 6 6 6 6
4 4 5 5 5 5 4 5 5 6 6 6 6 6 7 7 6 6 6 5 5 5 5 5 5 5 5 5 5 5 5 5 5 5 6 6 6 6 6 6 6 6 6
3 3 4 6 4 2 4 4 4 6 6 7 7 7 7 6 6 6 5 5 5 5 5 5 5 5 5 5 5 5 5 5 5 5 6 6 6 6 6 6 6 6 6
3 3 3 4 7 3 3 4 3 5 6 6 6 6 6 6 6 5 5 5 5 5 5 5 5 5 5 5 5 5 5 5 5 5 5 5 6 6 5 6 5 5 5
3 2 3 3 6 2 3 2 3 3 5 5 5 5 5 5 5 5 5 5 5 5 5 5 5 5 5 5 5 5 5 5 5 5 5 5 5 5 5 5 5 5 5
2 2 2 2 4 5 3 4 3 3 3 4 4 5 5 5 5 5 5 5 5 5 5 5 5 5 5 5 5 5 5 5 5 4 4 4 5 5 5 5 4 4 5
2 2 2 2 2 4 3 4 3 3 3 3 4 4 4 5 5 5 5 5 5 5 5 5 5 5 5 4 4 5 4 4 4 4 3 4 4 4 4 4 4 4 4
1 2 3 2 3 4 3 2 1 2 2 3 3 4 4 4 5 5 5 4 5 5 5 5 5 5 5 4 4 4 4 3 3 3 2 3 4 4 4 4 3 4 4
1 2 2 3 2 2 3 2 2 2 3 3 3 4 4 4 4 3 3 3 3 3 4 4 4 3 4 4 3 2 3 3 3 3 3 2 2 3 3 3 4 4 3
1 3 2 2 1 1 2 3 3 3 2 2 2 3 3 2 2 3 2 3 3 3 3 3 3 3 2 3 3 3 2 1 2 2 2 2 2 2 2 1 2 2 2
2 2 2 2 1 1 2 2 2 3 1 1 2 2 2 2 1 1 1 2 1 3 3 3 3 2 3 3 4 2 2 2 2 2 2 2 1 1 1 2 1 2 2
3 2 3 1 2 2 2 2 2 2 1 1 2 2 2 1 2 2 2 2 3 4 1 2 2 2 2 4 2 3 3 2 3 2 2 2 1 1 1 1 1 2 2
Height
3139 3138 3139 3142 3143 3144 3145 3146 3147 3148 3149 3151 3152 3153 3155 3157 3158 3160 3161 3163 3163 3164 3164 3165 3166 3167 3167 3167 3168 3168 3168 3169 3169 3169 3169 3169 3169 3170 3170 3170 3170 3169 3169
3137 3139 3139 3140 3141 3142 3143 3145 3146 3147 3149 3150 3152 3153 3156 3157 3159 3160 3162 3163 3164 3165 3166 3167 3167 3168 3168 3169 3169 3170 3170 3170 3170 3170 3171 3170 3171 3171 3171 3171 3171 3171 3170
3134 3137 3138 3138 3139 3141 3142 3143 3145 3146 3148 3150 3152 3153 3155 3158 3160 3161 3163 3163 3164 3165 3166 3167 3168 3169 3170 3170 3170 3171 3171 3172 3172 3172 3172 3172 3172 3172 3172 3172 3172 3172 3171
3130 3133 3135 3136 3137 3139 3140 3142 3143 3145 3147 3149 3151 3153 3155 3157 3160 3161 3163 3164 3165 3166 3167 3168 3169 3170 3171 3172 3172 3173 3173 3173 3173 3174 3174 3174 3174 3174 3174 3174 3173 3173 3173
3127 3129 3131 3134 3135 3136 3139 3140 3142 3143 3146 3148 3150 3153 3155 3157 3159 3161 3162 3164 3165 3167 3168 3169 3170 3171 3172 3173 3174 3175 3175 3175 3175 3176 3175 3175 3175 3175 3175 3175 3175 3175 3174
3124 3128 3129 3130 3132 3134 3136 3138 3141 3142 3145 3147 3149 3152 3154 3156 3159 3161 3162 3164 3165 3167 3168 3170 3171 3172 3173 3174 3175 3176 3176 3177 3177 3177 3177 3177 3177 3176 3176 3176 3176 3176 3175
3121 3126 3128 3128 3129 3131 3133 3135 3138 3141 3143 3146 3149 3151 3153 3155 3158 3160 3162 3164 3166 3168 3169 3170 3172 3173 3174 3175 3176 3176 3177 3178 3178 3178 3178 3178 3178 3178 3177 3177 3177 3176 3176
3118 3122 3124 3125 3126 3128 3130 3132 3135 3138 3141 3144 3147 3150 3151 3154 3157 3159 3161 3163 3166 3167 3169 3170 3172 3174 3175 3176 3176 3177 3177 3178 3179 3179 3179 3179 3179 3179 3178 3178 3178 3177 3176
3113 3115 3120 3122 3122 3125 3128 3130 3132 3135 3139 3142 3145 3147 3150 3153 3156 3158 3160 3163 3165 3167 3169 3171 3173 3174 3175 3176 3177 3177 3177 3178 3178 3179 3179 3179 3179 3179 3178 3178 3177 3177 3176
3107 3110 3113 3116 3118 3122 3125 3128 3130 3132 3137 3140 3142 3145 3148 3152 3154 3157 3159 3162 3165 3167 3169 3172 3173 3175 3176 3177 3178 3177 3177 3177 3177 3178 3178 3179 3179 3179 3178 3178 3178 3177 3176
3102 3104 3107 3111 3114 3119 3123 3126 3128 3130 3134 3136 3140 3144 3146 3150 3152 3155 3158 3161 3164 3167 3170 3171 3173 3175 3176 3177 3177 3177 3178 3177 3177 3177 3177 3177 3178 3178 3178 3177 3177 3176 3175
3099 3101 3100 3104 3109 3116 3120 3123 3125 3128 3132 3134 3137 3140 3143 3147 3150 3153 3157 3160 3163 3166 3169 3171 3172 3174 3175 3176 3177 3177 3177 3177 3176 3176 3176 3176 3177 3177 3176 3176 3176 3174 3173
3094 3097 3098 3094 3098 3102 3112 3119 3121 3124 3128 3132 3134 3137 3140 3144 3147 3151 3155 3159 3162 3165 3168 3170 3171 3173 3174 3175 3176 3176 3176 3175 3175 3175 3175 3176 3176 3175 3175 3175 3174 3173 3172
3087 3092 3095 3098 3103 3094 3106 3112 3117 3120 3123 3126 3130 3134 3138 3141 3146 3150 3153 3158 3161 3165 3167 3169 3170 3172 3173 3174 3174 3175 3175 3175 3174 3175 3175 3175 3174 3174 3173 3173 3173 3172 3171
3078 3083 3086 3090 3089 3085 3099 3101 3111 3114 3118 3122 3127 3130 3133 3139 3144 3148 3151 3155 3159 3163 3166 3168 3169 3171 3172 3173 3173 3174 3174 3174 3174 3173 3174 3173 3173 3173 3172 3172 3171 3171 3169
3071 3074 3078 3083 3088 3080 3091 3095 3101 3108 3112 3118 3123 3126 3131 3137 3142 3146 3150 3154 3158 3161 3164 3166 3168 3169 3171 3171 3172 3172 3172 3172 3172 3171 3172 3172 3171 3171 3170 3170 3169 3169 3168
3061 3064 3063 3064 3074 3083 3083 3071 3095 3103 3106 3113 3120 3124 3130 3136 3140 3145 3148 3152 3156 3159 3161 3163 3165 3167 3168 3169 3169 3170 3171 3171 3170 3170 3169 3169 3169 3169 3168 3167 3167 3165 3164
3052 3055 3055 3054 3065 3072 3083 3082 3092 3098 3103 3111 3116 3122 3128 3133 3138 3143 3147 3150 3153 3157 3159 3161 3163 3164 3165 3166 3166 3167 3167 3167 3167 3167 3166 3166 3166 3166 3165 3165 3163 3162 3161
3043 3047 3049 3049 3060 3077 3078 3082 3088 3095 3102 3109 3114 3119 3124 3129 3135 3139 3144 3147 3150 3154 3155 3157 3159 3160 3161 3162 3163 3163 3163 3163 3164 3164 3164 3163 3162 3163 3162 3161 3160 3160 3158
3038 3041 3045 3050 3060 3069 3076 3082 3086 3090 3100 3106 3112 3117 3122 3127 3132 3136 3140 3143 3146 3149 3151 3153 3154 3157 3157 3159 3158 3158 3159 3159 3159 3160 3160 3159 3158 3159 3158 3158 3157 3156 3155
3031 3036 3041 3046 3053 3064 3073 3078 3084 3088 3093 3101 3108 3114 3120 3125 3130 3134 3137 3140 3143 3145 3147 3149 3151 3153 3153 3154 3154 3153 3153 3154 3154 3154 3153 3155 3155 3155 3154 3154 3153 3152 3150
3029 3034 3035 3042 3050 3059 3072 3078 3084 3089 3095 3102 3108 3114 3119 3123 3127 3131 3134 3136 3139 3140 3142 3144 3146 3147 3148 3148 3148 3149 3148 3149 3148 3147 3149 3150 3149 3149 3148 3148 3148 3147 3144
3026 3031 3034 3039 3048 3061 3068 3076 3083 3088 3093 3101 3106 3111 3115 3119 3122 3125 3127 3131 3132 3134 3137 3139 3140 3142 3142 3143 3142 3144 3139 3142 3144 3143 3144 3145 3146 3145 3144 3144 3142 3142 3137
3023 3026 3033 3040 3050 3058 3066 3072 3079 3085 3091 3095 3101 3103 3106 3109 3115 3117 3122 3127 3129 3131 3131 3134 3135 3136 3137 3137 3136 3137 3135 3137 3137 3137 3140 3139 3139 3139 3136 3134 3134 3131 3130
3021 3027 3034 3041 3048 3054 3062 3070 3075 3082 3088 3092 3098 3099 3104 3105 3110 3115 3117 3120 3123 3125 3126 3128 3128 3129 3130 3128 3127 3128 3130 3132 3133 3132 3133 3135 3133 3132 3132 3130 3129 3126 3124
3018 3026 3034 3041 3046 3054 3061 3066 3074 3080 3085 3091 3094 3096 3099 3101 3103 3105 3111 3114 3117 3118 3114 3119 3120 3121 3125 3126 3121 3122 3123 3124 3125 3126 3127 3127 3126 3127 3126 3124 3124 3122 3120
Wind_Speed
15 5 10 15 14 12 12 13 13 13 13 14 15 17 17 16 16 15 13 9 7 6 6 7 8 9 9 8 8 8 9 8 9 9 9 10 10 10 10 11 10 10 10
28 24 15 13 15 13 13 13 13 14 14 15 17 18 17 16 16 15 12 9 6 5 6 7 6 8 8 9 9 9 9 10 11 12 12 13 12 12 11 11 11 11 10
27 24 20 14 16 15 15 14 14 15 15 16 18 20 18 17 16 14 12 9 8 7 7 6 6 8 8 9 10 11 12 12 12 12 11 12 11 11 11 11 10 10 10
20 22 24 20 16 16 16 15 15 15 16 17 19 21 20 18 16 14 11 9 9 10 8 7 7 9 10 10 11 12 11 11 11 11 11 11 10 10 10 10 10 10 10
13 18 23 22 19 17 17 17 16 16 17 18 21 21 21 18 16 14 12 10 11 10 9 9 9 9 11 12 11 10 10 9 10 9 10 10 9 10 10 10 9 9 10
20 17 21 24 21 19 19 18 17 18 18 20 22 23 22 21 18 15 12 12 12 11 11 11 11 12 11 10 9 9 8 8 7 8 8 8 8 8 8 8 9 9 10
26 24 23 26 25 21 21 19 19 19 20 22 23 23 23 22 19 16 14 14 13 12 12 13 13 12 11 10 8 7 6 5 4 6 6 6 6 6 6 7 7 8 9
26 27 28 28 28 23 23 21 20 21 23 25 25 25 25 24 20 17 16 15 14 15 15 15 13 12 10 9 7 6 5 4 3 3 3 4 4 4 4 5 6 7 8
33 27 29 29 28 26 23 23 22 23 26 27 27 28 27 24 20 19 18 17 17 16 16 15 13 11 9 7 6 4 3 2 2 1 1 1 1 2 3 4 6 7 9
38 38 36 31 31 27 26 25 25 28 29 29 29 29 27 24 21 21 21 20 19 18 16 14 12 9 7 5 3 2 2 1 1 1 1 1 2 2 3 5 6 8 9
36 37 41 42 36 31 28 26 29 33 33 32 30 28 30 25 23 24 23 21 20 18 16 14 11 8 5 4 3 3 3 3 4 3 3 3 3 4 4 5 6 8 9
38 38 41 34 40 31 29 28 32 36 34 34 33 31 31 25 25 26 24 23 22 20 17 14 10 8 6 4 4 4 4 4 4 4 4 4 4 4 5 5 6 8 9
39 40 36 42 43 33 30 32 34 39 40 33 35 35 29 26 30 27 26 24 22 20 17 14 10 8 6 6 5 5 5 5 5 5 5 5 5 6 6 7 7 9 11
38 41 39 40 46 36 32 36 37 40 45 45 38 37 34 29 30 28 27 25 23 20 17 14 11 8 7 7 6 6 6 7 7 6 6 6 7 7 7 8 9 10 12
44 43 43 46 48 18 40 43 42 41 44 47 43 37 35 32 32 30 29 27 24 21 17 14 12 10 9 8 8 8 8 8 9 8 6 7 8 9 9 10 11 11 12
41 41 49 54 52 28 40 43 47 43 44 44 43 42 37 34 34 32 29 27 24 21 18 15 13 12 11 11 10 11 11 11 10 11 12 10 10 11 12 11 12 13 14
41 43 47 53 72 50 37 44 44 42 42 39 40 38 34 34 32 31 29 27 25 22 19 17 15 13 13 13 13 14 14 14 14 13 14 14 12 12 12 13 13 14 15
41 41 37 32 60 40 32 37 33 30 36 35 35 34 34 34 33 32 31 28 26 23 20 18 17 15 14 15 15 15 17 18 18 17 16 17 17 14 14 14 13 15 16
40 33 27 20 45 46 41 29 32 31 30 32 35 36 36 36 35 33 30 28 26 23 22 21 19 18 17 17 17 18 20 22 21 20 19 19 20 16 17 16 16 18 21
39 31 29 24 31 38 38 34 31 33 33 32 34 36 36 35 34 32 30 28 26 25 23 23 21 21 19 20 21 21 24 25 23 23 23 23 22 18 18 18 19 20 20
13 26 30 35 31 43 45 41 36 30 31 34 33 31 31 31 31 29 28 27 25 25 25 26 24 21 21 19 26 26 27 26 24 25 27 22 21 19 20 19 19 19 21
18 23 30 35 29 33 41 36 28 25 23 26 29 28 27 28 28 27 26 25 25 26 28 28 28 29 26 26 26 26 28 26 27 29 26 23 23 23 22 18 19 24 31
22 21 24 32 41 45 39 36 35 31 26 21 22 26 27 25 25 23 22 18 18 21 22 26 25 25 29 37 30 30 25 30 29 26 28 28 26 25 28 28 25 28 33
21 22 24 34 47 43 39 37 32 32 34 28 31 32 31 31 29 29 30 28 26 21 21 18 20 22 27 35 40 35 19 22 29 27 16 25 31 34 38 43 32 35 33
21 32 31 45 51 43 37 39 39 45 32 28 26 32 35 35 34 31 32 34 27 34 34 37 40 43 40 40 26 19 11 22 20 28 29 29 30 25 23 19 23 27 27
28 32 31 36 42 38 40 27 23 24 34 32 28 29 32 44 26 28 39 28 33 34 41 35 39 37 22 14 15 14 8 19 25 25 28 24 23 24 25 23 23 24 26
Wind_Direction
251 287 258 252 252 245 232 230 220 209 199 188 179 172 170 172 169 167 171 174 173 168 161 134 134 123 127 119 118 114 111 109 106 101 99 95 91 90 87 80 76 72 69
255 257 271 248 247 242 232 225 220 214 204 195 184 178 176 177 172 169 172 173 169 164 146 145 144 130 129 126 124 119 116 113 109 103 103 98 93 89 85 82 75 71 69
258 251 254 257 240 238 232 223 215 211 206 199 188 183 182 180 179 174 175 171 165 159 155 155 145 140 138 133 127 121 116 111 108 103 103 96 92 85 80 75 74 71 67
254 238 244 250 236 233 229 226 217 210 205 198 192 186 184 184 183 180 178 176 170 160 161 157 154 145 139 132 125 121 116 112 107 102 100 93 89 84 76 71 66 63 59
254 236 236 241 240 228 226 225 217 212 206 198 192 184 186 188 187 186 183 185 171 162 162 160 154 145 135 128 124 118 111 107 103 109 100 96 89 81 73 65 59 55 51
257 258 244 236 232 228 223 220 218 212 205 197 188 182 190 189 192 191 192 183 170 168 163 158 150 141 135 129 124 118 114 112 108 105 99 94 87 78 69 61 53 47 42
255 255 257 241 231 225 224 214 212 209 201 191 184 183 193 193 192 195 192 180 173 169 164 155 150 145 139 134 128 123 119 110 113 107 102 96 89 80 62 53 44 37 30
246 251 255 246 234 223 222 212 205 203 195 187 182 188 195 191 193 196 183 179 175 172 164 158 152 149 144 140 137 132 127 118 102 105 100 91 83 75 53 34 27 23 17
243 248 250 250 220 224 221 214 201 195 187 185 188 195 193 192 195 191 181 181 179 173 166 162 156 152 149 147 147 145 147 143 140 125 66 98 68 36 20 8 10 6 2
241 240 237 238 224 221 222 214 201 189 185 190 196 195 196 195 196 190 183 184 180 175 170 166 162 159 157 157 164 182 211 233 246 270 280 294 293 313 342 349 352 353 350
239 238 239 241 225 219 221 217 202 190 190 192 198 198 200 196 197 192 188 186 182 177 174 171 169 170 179 189 207 239 263 277 276 268 280 280 284 300 318 331 335 339 335
241 240 240 230 217 210 219 218 209 195 191 195 199 199 192 198 196 193 190 187 184 180 178 178 181 190 203 222 242 252 268 280 274 278 281 288 293 298 307 319 325 325 328
239 245 236 247 236 193 217 219 214 202 194 196 198 199 196 201 197 194 193 189 185 183 183 189 195 206 220 231 251 265 268 268 279 288 287 292 292 296 302 309 313 319 323
233 244 242 225 221 192 196 224 216 209 201 195 199 206 206 206 200 195 194 189 187 188 193 198 208 220 240 254 256 262 265 276 282 287 295 293 290 293 299 305 311 319 322
240 238 247 251 233 214 204 214 214 213 207 206 204 207 212 206 200 195 194 190 191 196 198 209 219 230 245 256 265 270 274 279 288 291 290 297 294 296 302 306 312 315 322
248 249 252 252 223 198 210 212 204 210 208 208 208 212 213 203 199 197 195 193 196 201 210 221 237 249 257 264 264 268 274 282 289 295 299 292 294 301 302 305 309 314 317
240 242 249 252 215 237 233 191 205 208 205 206 209 213 208 199 201 197 195 198 202 210 220 232 243 254 268 272 274 276 278 281 285 290 292 293 293 292 295 303 309 309 313
237 239 248 246 226 234 213 178 199 205 204 203 200 199 197 198 197 198 201 205 211 220 231 240 253 261 271 276 278 280 281 278 280 287 293 294 294 293 295 299 304 307 314
224 226 231 213 228 233 197 196 193 197 200 195 195 195 196 197 198 203 208 214 221 230 238 246 254 261 265 271 277 279 278 278 282 282 282 286 283 288 288 295 298 301 308
212 210 202 201 219 232 200 193 192 188 195 198 197 199 199 199 203 208 214 221 228 238 245 252 259 265 272 278 274 275 276 279 280 277 275 276 283 278 279 284 292 302 308
217 213 206 213 209 228 204 199 193 188 190 191 197 199 202 205 211 216 222 230 236 243 253 259 262 267 269 280 285 280 278 280 280 275 271 277 269 267 270 278 290 300 312
233 219 213 195 200 207 192 189 203 202 202 202 201 206 208 213 217 221 228 235 245 252 257 264 269 269 271 279 291 286 274 271 271 274 266 266 257 258 263 270 293 300 301
223 201 180 181 181 180 179 181 182 183 182 189 197 203 203 210 214 217 225 235 245 259 268 276 279 284 276 264 285 280 261 269 262 247 281 284 266 270 271 272 282 298 293
195 205 197 186 176 177 178 179 182 191 192 195 199 203 205 213 222 230 237 242 243 250 259 268 267 276 288 287 284 285 268 262 260 260 267 281 275 270 277 270 268 272 286
195 187 184 179 175 180 181 198 201 207 205 197 215 211 219 230 224 235 237 239 258 257 255 266 272 274 284 295 286 249 262 249 268 268 268 280 283 270 270 270 277 288 291
163 164 191 189 175 180 184 180 189 213 212 222 218 236 238 246 239 240 247 245 253 270 249 261 260 266 266 276 243 239 250 263 252 262 270 272 270 276 276 282 279 286 293